Hourly Data Report for October 01, 2017

All times are specified in Local Standard Time (LST). Add 1 hour to adjust for Daylight Saving Time where and when it is observed.

GRISE FIORD CLIMATE
NUNAVUT

76°25'22.040" N
82°54'08.020" W
44.50 m
2402351
71971
NGC

Download Data

Hourly Data (October 2017)
Hourly Data Report for October 1, 2017
Temp Definition
°C
Dew Point Temp Definition
°C
Rel Hum Definition
%
Wind Dir Definition
10's deg

Wind Spd Definition
km/h
Visibility Definition
km
Stn Press Definition
kPa
Hmdx Definition


Wind Chill Definition


Weather Definition


TIME
00:00 -6.7 -11.3 70 25 12   100.52   -12 LegendNANA
01:00 -6.7 -11.2 70 28 19   100.51   -14 LegendNANA
02:00 -6.8 -12.3 65 29 17   100.50   -13 LegendNANA
03:00 -6.8 -12.0 67 28 2   100.48   -8 LegendNANA
04:00 -6.9 -12.3 65 29 10   100.45   -12 LegendNANA
05:00 -6.2 -11.7 65 27 22   100.42   -13 LegendNANA
06:00 -6.5 -11.5 67 29 21   100.44   -14 LegendNANA
07:00 -8.2 -12.9 69 2 9   100.44   -13 LegendNANA
08:00 -8.2 -12.5 71 35 14   100.44   -14 LegendNANA
09:00 -7.6 -12.4 68 34 6   100.40   -11 LegendNANA
10:00 -7.2 -12.4 66 33 11   100.46   -12 LegendNANA
11:00 -5.7 -11.9 61 1 11   100.43   -10 LegendNANA
12:00 -5.9 -10.5 70 26 14   100.45   -11 LegendNANA
13:00 -5.4 -10.2 69 26 15   100.45   -11 LegendNANA
14:00 -5.0 -11.2 62 26 5   100.45   -7 LegendNANA
15:00 -5.7 -11.6 63 33 4   100.46   -8 LegendNANA
16:00 -5.7 -9.0 77 14 2   100.48   -7 LegendNANA
17:00 -5.5 -7.7 84 25 7   100.46   -9 LegendNANA
18:00 -5.7 -6.7 93 23 17   100.48   -12 LegendNANA
19:00 -5.8 -6.9 92 24 14   100.46   -11 LegendNANA
20:00 -5.8 -7.0 91 23 10   100.46   -10 LegendNANA
21:00 -5.9 -7.3 90 23 5   100.45   -8 LegendNANA
22:00 -6.1 -7.4 91 28 6   100.43   -9 LegendNANA
23:00 -6.3 -7.6 91 22 4   100.41   -8 LegendNANA

Notes on Data Quality.

Legend

  • E = Estimated
  • M = Missing
  • NA = Not Available
  • ‡ = Partner data that is not subject to review by the National Climate Archives
Date modified: